Data supplied by UK-AIR on 5/4/2008
All Data GMT hour ending 
Status: R =Ratified P=Provisional,P*=As supplied
,,Salford Eccles,,,,,,,,,,,,,,,,,,,,,,,
Date,time,"Carbon monoxide",status,unit,"PM10 particulate matter (Hourly measured)",status,unit,"Nitric oxide",status,unit,"Nitrogen dioxide",status,unit,"Nitrogen oxides as nitrogen dioxide",status,unit,"Ozone",status,unit,"Sulphur dioxide",status,unit
 
01-01-1999,01:00,,,,14,R,ugm-3 (GRAV EQ),5,R,ugm-3,19,R,ugm-3,27,R,ugm-3,46,R,ugm-3,5,R,ugm-3
01-01-1999,02:00,,,,16,R,ugm-3 (GRAV EQ),4,R,ugm-3,25,R,ugm-3,31,R,ugm-3,44,R,ugm-3,8,R,ugm-3
01-01-1999,03:00,,,,16,R,ugm-3 (GRAV EQ),5,R,ugm-3,21,R,ugm-3,29,R,ugm-3,46,R,ugm-3,13,R,ugm-3
01-01-1999,04:00,,,,17,R,ugm-3 (GRAV EQ),4,R,ugm-3,23,R,ugm-3,29,R,ugm-3,44,R,ugm-3,13,R,ugm-3
01-01-1999,05:00,,,,17,R,ugm-3 (GRAV EQ),5,R,ugm-3,25,R,ugm-3,32,R,ugm-3,42,R,ugm-3,11,R,ugm-3
01-01-1999,06:00,,,,16,R,ugm-3 (GRAV EQ),4,R,ugm-3,15,R,ugm-3,21,R,ugm-3,52,R,ugm-3,3,R,ugm-3
01-01-1999,07:00,,,,13,R,ugm-3 (GRAV EQ),4,R,ugm-3,15,R,ugm-3,21,R,ugm-3,54,R,ugm-3,3,R,ugm-3
01-01-1999,08:00,,,,12,R,ugm-3 (GRAV EQ),4,R,ugm-3,19,R,ugm-3,25,R,ugm-3,54,R,ugm-3,3,R,ugm-3
01-01-1999,09:00,,,,9,R,ugm-3 (GRAV EQ),4,R,ugm-3,21,R,ugm-3,27,R,ugm-3,54,R,ugm-3,3,R,ugm-3
01-01-1999,10:00,,,,8,R,ugm-3 (GRAV EQ),5,R,ugm-3,19,R,ugm-3,27,R,ugm-3,58,R,ugm-3,3,R,ugm-3
01-01-1999,11:00,,,,9,R,ugm-3 (GRAV EQ),5,R,ugm-3,17,R,ugm-3,25,R,ugm-3,62,R,ugm-3,3,R,ugm-3
01-01-1999,12:00,,,,12,R,ugm-3 (GRAV EQ),5,R,ugm-3,15,R,ugm-3,23,R,ugm-3,64,R,ugm-3,3,R,ugm-3
01-01-1999,13:00,,,,12,R,ugm-3 (GRAV EQ),4,R,ugm-3,15,R,ugm-3,21,R,ugm-3,64,R,ugm-3,3,R,ugm-3
01-01-1999,14:00,,,,14,R,ugm-3 (GRAV EQ),4,R,ugm-3,17,R,ugm-3,23,R,ugm-3,60,R,ugm-3,3,R,ugm-3
01-01-1999,15:00,,,,13,R,ugm-3 (GRAV EQ),4,R,ugm-3,17,R,ugm-3,23,R,ugm-3,60,R,ugm-3,3,R,ugm-3
01-01-1999,16:00,,,,14,R,ugm-3 (GRAV EQ),5,R,ugm-3,19,R,ugm-3,27,R,ugm-3,58,R,ugm-3,3,R,ugm-3
01-01-1999,17:00,,,,13,R,ugm-3 (GRAV EQ),4,R,ugm-3,21,R,ugm-3,27,R,ugm-3,56,R,ugm-3,3,R,ugm-3
01-01-1999,18:00,,,,13,R,ugm-3 (GRAV EQ),4,R,ugm-3,21,R,ugm-3,27,R,ugm-3,56,R,ugm-3,3,R,ugm-3
01-01-1999,19:00,,,,10,R,ugm-3 (GRAV EQ),5,R,ugm-3,17,R,ugm-3,25,R,ugm-3,60,R,ugm-3,3,R,ugm-3
01-01-1999,20:00,,,,10,R,ugm-3 (GRAV EQ),5,R,ugm-3,17,R,ugm-3,25,R,ugm-3,60,R,ugm-3,0,R,ugm-3
01-01-1999,21:00,,,,16,R,ugm-3 (GRAV EQ),4,R,ugm-3,19,R,ugm-3,25,R,ugm-3,60,R,ugm-3,3,R,ugm-3
01-01-1999,22:00,,,,14,R,ugm-3 (GRAV EQ),4,R,ugm-3,21,R,ugm-3,27,R,ugm-3,60,R,ugm-3,3,R,ugm-3
01-01-1999,23:00,,,,14,R,ugm-3 (GRAV EQ),5,R,ugm-3,17,R,ugm-3,25,R,ugm-3,60,R,ugm-3,3,R,ugm-3
01-01-1999,24:00,,,,13,R,ugm-3 (GRAV EQ),4,R,ugm-3,15,R,ugm-3,21,R,ugm-3,64,R,ugm-3,3,R,ugm-3
02-01-1999,01:00,,,,12,R,ugm-3 (GRAV EQ),5,R,ugm-3,11,R,ugm-3,19,R,ugm-3,68,R,ugm-3,0,R,ugm-3
02-01-1999,02:00,,,,9,R,ugm-3 (GRAV EQ),4,R,ugm-3,13,R,ugm-3,19,R,ugm-3,72,R,ugm-3,0,R,ugm-3
02-01-1999,03:00,,,,8,R,ugm-3 (GRAV EQ),4,R,ugm-3,10,R,ugm-3,15,R,ugm-3,68,R,ugm-3,0,R,ugm-3
02-01-1999,04:00,,,,4,R,ugm-3 (GRAV EQ),4,R,ugm-3,10,R,ugm-3,15,R,ugm-3,72,R,ugm-3,0,R,ugm-3
02-01-1999,05:00,,,,5,R,ugm-3 (GRAV EQ),5,R,ugm-3,11,R,ugm-3,19,R,ugm-3,68,R,ugm-3,0,R,ugm-3
02-01-1999,06:00,,,,7,R,ugm-3 (GRAV EQ),6,R,ugm-3,11,R,ugm-3,21,R,ugm-3,70,R,ugm-3,0,R,ugm-3
02-01-1999,07:00,,,,10,R,ugm-3 (GRAV EQ),5,R,ugm-3,17,R,ugm-3,25,R,ugm-3,66,R,ugm-3,5,R,ugm-3
02-01-1999,08:00,,,,10,R,ugm-3 (GRAV EQ),6,R,ugm-3,19,R,ugm-3,29,R,ugm-3,60,R,ugm-3,3,R,ugm-3
02-01-1999,09:00,,,,14,R,ugm-3 (GRAV EQ),9,R,ugm-3,27,R,ugm-3,40,R,ugm-3,46,R,ugm-3,3,R,ugm-3
02-01-1999,10:00,,,,17,R,ugm-3 (GRAV EQ),9,R,ugm-3,25,R,ugm-3,38,R,ugm-3,50,R,ugm-3,3,R,ugm-3
02-01-1999,11:00,,,,16,R,ugm-3 (GRAV EQ),9,R,ugm-3,23,R,ugm-3,36,R,ugm-3,60,R,ugm-3,3,R,ugm-3
02-01-1999,12:00,,,,14,R,ugm-3 (GRAV EQ),10,R,ugm-3,23,R,ugm-3,38,R,ugm-3,58,R,ugm-3,5,R,ugm-3
02-01-1999,13:00,,,,16,R,ugm-3 (GRAV EQ),10,R,ugm-3,23,R,ugm-3,38,R,ugm-3,58,R,ugm-3,5,R,ugm-3
02-01-1999,14:00,,,,16,R,ugm-3 (GRAV EQ),10,R,ugm-3,23,R,ugm-3,38,R,ugm-3,62,R,ugm-3,5,R,ugm-3
02-01-1999,15:00,,,,20,R,ugm-3 (GRAV EQ),10,R,ugm-3,25,R,ugm-3,40,R,ugm-3,58,R,ugm-3,5,R,ugm-3
02-01-1999,16:00,,,,18,R,ugm-3 (GRAV EQ),10,R,ugm-3,31,R,ugm-3,46,R,ugm-3,50,R,ugm-3,5,R,ugm-3
02-01-1999,17:00,,,,18,R,ugm-3 (GRAV EQ),10,R,ugm-3,29,R,ugm-3,44,R,ugm-3,54,R,ugm-3,5,R,ugm-3
02-01-1999,18:00,,,,16,R,ugm-3 (GRAV EQ),9,R,ugm-3,36,R,ugm-3,50,R,ugm-3,44,R,ugm-3,5,R,ugm-3
02-01-1999,19:00,,,,17,R,ugm-3 (GRAV EQ),9,R,ugm-3,32,R,ugm-3,46,R,ugm-3,48,R,ugm-3,5,R,ugm-3
02-01-1999,20:00,,,,20,R,ugm-3 (GRAV EQ),8,R,ugm-3,29,R,ugm-3,40,R,ugm-3,52,R,ugm-3,5,R,ugm-3
02-01-1999,21:00,,,,22,R,ugm-3 (GRAV EQ),6,R,ugm-3,25,R,ugm-3,34,R,ugm-3,54,R,ugm-3,5,R,ugm-3
02-01-1999,22:00,,,,21,R,ugm-3 (GRAV EQ),6,R,ugm-3,23,R,ugm-3,32,R,ugm-3,52,R,ugm-3,5,R,ugm-3
02-01-1999,23:00,,,,17,R,ugm-3 (GRAV EQ),6,R,ugm-3,21,R,ugm-3,31,R,ugm-3,50,R,ugm-3,5,R,ugm-3
02-01-1999,24:00,,,,12,R,ugm-3 (GRAV EQ),6,R,ugm-3,17,R,ugm-3,27,R,ugm-3,54,R,ugm-3,3,R,ugm-3
03-01-1999,01:00,,,,17,R,ugm-3 (GRAV EQ),,,,,,,,,,50,R,ugm-3,,,
03-01-1999,02:00,,,,23,R,ugm-3 (GRAV EQ),6,R,ugm-3,21,R,ugm-3,31,R,ugm-3,58,R,ugm-3,3,R,ugm-3
03-01-1999,03:00,,,,22,R,ugm-3 (GRAV EQ),5,R,ugm-3,19,R,ugm-3,27,R,ugm-3,56,R,ugm-3,3,R,ugm-3
03-01-1999,04:00,,,,22,R,ugm-3 (GRAV EQ),5,R,ugm-3,13,R,ugm-3,21,R,ugm-3,62,R,ugm-3,5,R,ugm-3
03-01-1999,05:00,,,,21,R,ugm-3 (GRAV EQ),5,R,ugm-3,15,R,ugm-3,23,R,ugm-3,62,R,ugm-3,0,R,ugm-3
03-01-1999,06:00,,,,23,R,ugm-3 (GRAV EQ),6,R,ugm-3,21,R,ugm-3,31,R,ugm-3,56,R,ugm-3,3,R,ugm-3
03-01-1999,07:00,,,,21,R,ugm-3 (GRAV EQ),6,R,ugm-3,27,R,ugm-3,36,R,ugm-3,56,R,ugm-3,3,R,ugm-3
03-01-1999,08:00,,,,10,R,ugm-3 (GRAV EQ),6,R,ugm-3,23,R,ugm-3,32,R,ugm-3,62,R,ugm-3,0,R,ugm-3
03-01-1999,09:00,,,,12,R,ugm-3 (GRAV EQ),10,R,ugm-3,38,R,ugm-3,53,R,ugm-3,42,R,ugm-3,3,R,ugm-3
03-01-1999,10:00,,,,12,R,ugm-3 (GRAV EQ),11,R,ugm-3,46,R,ugm-3,63,R,ugm-3,38,R,ugm-3,3,R,ugm-3
03-01-1999,11:00,,,,13,R,ugm-3 (GRAV EQ),16,R,ugm-3,57,R,ugm-3,82,R,ugm-3,28,R,ugm-3,3,R,ugm-3
03-01-1999,12:00,,,,14,R,ugm-3 (GRAV EQ),15,R,ugm-3,55,R,ugm-3,78,R,ugm-3,28,R,ugm-3,3,R,ugm-3
03-01-1999,13:00,,,,16,R,ugm-3 (GRAV EQ),15,R,ugm-3,55,R,ugm-3,78,R,ugm-3,30,R,ugm-3,3,R,ugm-3
03-01-1999,14:00,,,,25,R,ugm-3 (GRAV EQ),8,R,ugm-3,29,R,ugm-3,40,R,ugm-3,62,R,ugm-3,3,R,ugm-3
03-01-1999,15:00,,,,29,R,ugm-3 (GRAV EQ),9,R,ugm-3,31,R,ugm-3,44,R,ugm-3,58,R,ugm-3,3,R,ugm-3
03-01-1999,16:00,,,,30,R,ugm-3 (GRAV EQ),9,R,ugm-3,44,R,ugm-3,57,R,ugm-3,42,R,ugm-3,3,R,ugm-3
03-01-1999,17:00,,,,27,R,ugm-3 (GRAV EQ),11,R,ugm-3,67,R,ugm-3,84,R,ugm-3,20,R,ugm-3,3,R,ugm-3
03-01-1999,18:00,,,,27,R,ugm-3 (GRAV EQ),13,R,ugm-3,71,R,ugm-3,90,R,ugm-3,10,R,ugm-3,8,R,ugm-3
03-01-1999,19:00,,,,21,R,ugm-3 (GRAV EQ),11,R,ugm-3,57,R,ugm-3,74,R,ugm-3,20,R,ugm-3,3,R,ugm-3
03-01-1999,20:00,,,,21,R,ugm-3 (GRAV EQ),9,R,ugm-3,48,R,ugm-3,61,R,ugm-3,30,R,ugm-3,3,R,ugm-3
03-01-1999,21:00,,,,12,R,ugm-3 (GRAV EQ),6,R,ugm-3,32,R,ugm-3,42,R,ugm-3,50,R,ugm-3,3,R,ugm-3
03-01-1999,22:00,,,,13,R,ugm-3 (GRAV EQ),8,R,ugm-3,38,R,ugm-3,50,R,ugm-3,50,R,ugm-3,3,R,ugm-3
03-01-1999,23:00,,,,13,R,ugm-3 (GRAV EQ),9,R,ugm-3,38,R,ugm-3,52,R,ugm-3,50,R,ugm-3,5,R,ugm-3
03-01-1999,24:00,,,,8,R,ugm-3 (GRAV EQ),8,R,ugm-3,27,R,ugm-3,38,R,ugm-3,58,R,ugm-3,3,R,ugm-3
04-01-1999,01:00,,,,5,R,ugm-3 (GRAV EQ),6,R,ugm-3,21,R,ugm-3,31,R,ugm-3,60,R,ugm-3,0,R,ugm-3
04-01-1999,02:00,,,,5,R,ugm-3 (GRAV EQ),,,,,,,,,,,,,,,
04-01-1999,03:00,,,,8,R,ugm-3 (GRAV EQ),,,,,,,,,,60,R,ugm-3,0,R,ugm-3
04-01-1999,04:00,,,,8,R,ugm-3 (GRAV EQ),,,,,,,,,,54,R,ugm-3,5,R,ugm-3
04-01-1999,05:00,,,,13,R,ugm-3 (GRAV EQ),,,,,,,,,,58,R,ugm-3,5,R,ugm-3
04-01-1999,06:00,,,,21,R,ugm-3 (GRAV EQ),,,,,,,,,,64,R,ugm-3,8,R,ugm-3
04-01-1999,07:00,,,,22,R,ugm-3 (GRAV EQ),,,,,,,,,,60,R,ugm-3,11,R,ugm-3
04-01-1999,08:00,,,,25,R,ugm-3 (GRAV EQ),,,,,,,,,,56,R,ugm-3,5,R,ugm-3
04-01-1999,09:00,,,,27,R,ugm-3 (GRAV EQ),,,,,,,,,,52,R,ugm-3,5,R,ugm-3
04-01-1999,10:00,,,,27,R,ugm-3 (GRAV EQ),,,,,,,,,,48,R,ugm-3,11,R,ugm-3
04-01-1999,11:00,,,,25,R,ugm-3 (GRAV EQ),,,,,,,,,,46,R,ugm-3,29,R,ugm-3
04-01-1999,12:00,,,,23,R,ugm-3 (GRAV EQ),,,,,,,,,,52,R,ugm-3,24,R,ugm-3
04-01-1999,13:00,,,,25,R,ugm-3 (GRAV EQ),,,,,,,,,,44,R,ugm-3,11,R,ugm-3
04-01-1999,14:00,,,,26,R,ugm-3 (GRAV EQ),,,,,,,,,,38,R,ugm-3,5,R,ugm-3
04-01-1999,15:00,,,,25,R,ugm-3 (GRAV EQ),,,,,,,,,,36,R,ugm-3,27,R,ugm-3
04-01-1999,16:00,,,,33,R,ugm-3 (GRAV EQ),0,R,ugm-3,42,R,ugm-3,42,R,ugm-3,42,R,ugm-3,8,R,ugm-3
04-01-1999,17:00,,,,36,R,ugm-3 (GRAV EQ),6,R,ugm-3,61,R,ugm-3,71,R,ugm-3,24,R,ugm-3,16,R,ugm-3
04-01-1999,18:00,,,,39,R,ugm-3 (GRAV EQ),13,R,ugm-3,73,R,ugm-3,92,R,ugm-3,12,R,ugm-3,11,R,ugm-3
04-01-1999,19:00,,,,36,R,ugm-3 (GRAV EQ),10,R,ugm-3,67,R,ugm-3,82,R,ugm-3,16,R,ugm-3,5,R,ugm-3
04-01-1999,20:00,,,,34,R,ugm-3 (GRAV EQ),6,R,ugm-3,52,R,ugm-3,61,R,ugm-3,30,R,ugm-3,5,R,ugm-3
04-01-1999,21:00,,,,36,R,ugm-3 (GRAV EQ),6,R,ugm-3,52,R,ugm-3,61,R,ugm-3,26,R,ugm-3,11,R,ugm-3
04-01-1999,22:00,,,,31,R,ugm-3 (GRAV EQ),6,R,ugm-3,42,R,ugm-3,52,R,ugm-3,36,R,ugm-3,11,R,ugm-3
04-01-1999,23:00,,,,29,R,ugm-3 (GRAV EQ),6,R,ugm-3,40,R,ugm-3,50,R,ugm-3,38,R,ugm-3,8,R,ugm-3
04-01-1999,24:00,,,,26,R,ugm-3 (GRAV EQ),8,R,ugm-3,40,R,ugm-3,52,R,ugm-3,36,R,ugm-3,8,R,ugm-3
05-01-1999,01:00,,,,27,R,ugm-3 (GRAV EQ),5,R,ugm-3,31,R,ugm-3,38,R,ugm-3,42,R,ugm-3,5,R,ugm-3
05-01-1999,02:00,,,,17,R,ugm-3 (GRAV EQ),5,R,ugm-3,27,R,ugm-3,34,R,ugm-3,50,R,ugm-3,3,R,ugm-3
05-01-1999,03:00,,,,14,R,ugm-3 (GRAV EQ),6,R,ugm-3,40,R,ugm-3,50,R,ugm-3,36,R,ugm-3,3,R,ugm-3
05-01-1999,04:00,,,,16,R,ugm-3 (GRAV EQ),8,R,ugm-3,44,R,ugm-3,55,R,ugm-3,30,R,ugm-3,3,R,ugm-3
05-01-1999,05:00,,,,13,R,ugm-3 (GRAV EQ),6,R,ugm-3,34,R,ugm-3,44,R,ugm-3,34,R,ugm-3,3,R,ugm-3
05-01-1999,06:00,,,,9,R,ugm-3 (GRAV EQ),8,R,ugm-3,34,R,ugm-3,46,R,ugm-3,34,R,ugm-3,11,R,ugm-3
05-01-1999,07:00,,,,8,R,ugm-3 (GRAV EQ),10,R,ugm-3,36,R,ugm-3,52,R,ugm-3,34,R,ugm-3,5,R,ugm-3
05-01-1999,08:00,,,,7,R,ugm-3 (GRAV EQ),13,R,ugm-3,46,R,ugm-3,65,R,ugm-3,26,R,ugm-3,3,R,ugm-3
05-01-1999,09:00,,,,9,R,ugm-3 (GRAV EQ),13,R,ugm-3,48,R,ugm-3,67,R,ugm-3,24,R,ugm-3,8,R,ugm-3
05-01-1999,10:00,,,,14,R,ugm-3 (GRAV EQ),16,R,ugm-3,48,R,ugm-3,73,R,ugm-3,26,R,ugm-3,5,R,ugm-3
05-01-1999,11:00,,,,16,R,ugm-3 (GRAV EQ),15,R,ugm-3,44,R,ugm-3,67,R,ugm-3,26,R,ugm-3,5,R,ugm-3
05-01-1999,12:00,,,,21,R,ugm-3 (GRAV EQ),16,R,ugm-3,46,R,ugm-3,71,R,ugm-3,26,R,ugm-3,5,R,ugm-3
05-01-1999,13:00,,,,26,R,ugm-3 (GRAV EQ),15,R,ugm-3,42,R,ugm-3,65,R,ugm-3,30,R,ugm-3,8,R,ugm-3
05-01-1999,14:00,,,,31,R,ugm-3 (GRAV EQ),15,R,ugm-3,42,R,ugm-3,65,R,ugm-3,30,R,ugm-3,16,R,ugm-3
05-01-1999,15:00,,,,38,R,ugm-3 (GRAV EQ),14,R,ugm-3,44,R,ugm-3,65,R,ugm-3,30,R,ugm-3,16,R,ugm-3
05-01-1999,16:00,,,,38,R,ugm-3 (GRAV EQ),14,R,ugm-3,42,R,ugm-3,63,R,ugm-3,32,R,ugm-3,21,R,ugm-3
05-01-1999,17:00,,,,49,R,ugm-3 (GRAV EQ),13,R,ugm-3,42,R,ugm-3,61,R,ugm-3,34,R,ugm-3,13,R,ugm-3
05-01-1999,18:00,,,,38,R,ugm-3 (GRAV EQ),11,R,ugm-3,36,R,ugm-3,53,R,ugm-3,38,R,ugm-3,19,R,ugm-3
05-01-1999,19:00,,,,27,R,ugm-3 (GRAV EQ),10,R,ugm-3,32,R,ugm-3,48,R,ugm-3,40,R,ugm-3,11,R,ugm-3
05-01-1999,20:00,,,,21,R,ugm-3 (GRAV EQ),9,R,ugm-3,29,R,ugm-3,42,R,ugm-3,46,R,ugm-3,8,R,ugm-3
05-01-1999,21:00,,,,33,R,ugm-3 (GRAV EQ),9,R,ugm-3,27,R,ugm-3,40,R,ugm-3,48,R,ugm-3,11,R,ugm-3
05-01-1999,22:00,,,,48,R,ugm-3 (GRAV EQ),9,R,ugm-3,21,R,ugm-3,34,R,ugm-3,56,R,ugm-3,5,R,ugm-3
05-01-1999,23:00,,,,56,R,ugm-3 (GRAV EQ),6,R,ugm-3,23,R,ugm-3,32,R,ugm-3,56,R,ugm-3,5,R,ugm-3
05-01-1999,24:00,,,,56,R,ugm-3 (GRAV EQ),6,R,ugm-3,21,R,ugm-3,31,R,ugm-3,58,R,ugm-3,5,R,ugm-3
06-01-1999,01:00,,,,51,R,ugm-3 (GRAV EQ),8,R,ugm-3,17,R,ugm-3,29,R,ugm-3,62,R,ugm-3,3,R,ugm-3
06-01-1999,02:00,,,,57,R,ugm-3 (GRAV EQ),6,R,ugm-3,23,R,ugm-3,32,R,ugm-3,58,R,ugm-3,3,R,ugm-3
06-01-1999,03:00,,,,70,R,ugm-3 (GRAV EQ),5,R,ugm-3,19,R,ugm-3,27,R,ugm-3,64,R,ugm-3,3,R,ugm-3
06-01-1999,04:00,,,,68,R,ugm-3 (GRAV EQ),5,R,ugm-3,21,R,ugm-3,29,R,ugm-3,64,R,ugm-3,5,R,ugm-3
06-01-1999,05:00,,,,23,R,ugm-3 (GRAV EQ),8,R,ugm-3,29,R,ugm-3,40,R,ugm-3,58,R,ugm-3,3,R,ugm-3
06-01-1999,06:00,,,,13,R,ugm-3 (GRAV EQ),9,R,ugm-3,34,R,ugm-3,48,R,ugm-3,60,R,ugm-3,3,R,ugm-3
06-01-1999,07:00,,,,7,R,ugm-3 (GRAV EQ),6,R,ugm-3,40,R,ugm-3,50,R,ugm-3,56,R,ugm-3,0,R,ugm-3
06-01-1999,08:00,,,,7,R,ugm-3 (GRAV EQ),8,R,ugm-3,50,R,ugm-3,61,R,ugm-3,38,R,ugm-3,0,R,ugm-3
06-01-1999,09:00,,,,8,R,ugm-3 (GRAV EQ),11,R,ugm-3,52,R,ugm-3,69,R,ugm-3,24,R,ugm-3,0,R,ugm-3
06-01-1999,10:00,,,,13,R,ugm-3 (GRAV EQ),15,R,ugm-3,61,R,ugm-3,84,R,ugm-3,18,R,ugm-3,3,R,ugm-3
06-01-1999,11:00,,,,20,R,ugm-3 (GRAV EQ),26,R,ugm-3,73,R,ugm-3,113,R,ugm-3,6,R,ugm-3,3,R,ugm-3
06-01-1999,12:00,,,,,,,,,,,,,,,,,,,,,
06-01-1999,13:00,,,,16,R,ugm-3 (GRAV EQ),20,R,ugm-3,71,R,ugm-3,101,R,ugm-3,16,R,ugm-3,3,R,ugm-3
06-01-1999,14:00,,,,17,R,ugm-3 (GRAV EQ),18,R,ugm-3,73,R,ugm-3,99,R,ugm-3,16,R,ugm-3,3,R,ugm-3
06-01-1999,15:00,,,,14,R,ugm-3 (GRAV EQ),14,R,ugm-3,69,R,ugm-3,90,R,ugm-3,20,R,ugm-3,3,R,ugm-3
06-01-1999,16:00,,,,20,R,ugm-3 (GRAV EQ),40,R,ugm-3,86,R,ugm-3,147,R,ugm-3,8,R,ugm-3,5,R,ugm-3
06-01-1999,17:00,,,,34,R,ugm-3 (GRAV EQ),88,R,ugm-3,94,R,ugm-3,227,R,ugm-3,2,R,ugm-3,8,R,ugm-3
06-01-1999,18:00,,,,27,R,ugm-3 (GRAV EQ),103,R,ugm-3,94,R,ugm-3,250,R,ugm-3,2,R,ugm-3,8,R,ugm-3
06-01-1999,19:00,,,,26,R,ugm-3 (GRAV EQ),94,R,ugm-3,92,R,ugm-3,235,R,ugm-3,0,R,ugm-3,8,R,ugm-3
06-01-1999,20:00,,,,23,R,ugm-3 (GRAV EQ),58,R,ugm-3,84,R,ugm-3,172,R,ugm-3,0,R,ugm-3,8,R,ugm-3
06-01-1999,21:00,,,,22,R,ugm-3 (GRAV EQ),40,R,ugm-3,76,R,ugm-3,138,R,ugm-3,0,R,ugm-3,8,R,ugm-3
06-01-1999,22:00,,,,20,R,ugm-3 (GRAV EQ),23,R,ugm-3,74,R,ugm-3,109,R,ugm-3,2,R,ugm-3,8,R,ugm-3
06-01-1999,23:00,,,,10,R,ugm-3 (GRAV EQ),11,R,ugm-3,63,R,ugm-3,80,R,ugm-3,16,R,ugm-3,3,R,ugm-3
06-01-1999,24:00,,,,14,R,ugm-3 (GRAV EQ),14,R,ugm-3,67,R,ugm-3,88,R,ugm-3,10,R,ugm-3,3,R,ugm-3
07-01-1999,01:00,,,,12,R,ugm-3 (GRAV EQ),9,R,ugm-3,53,R,ugm-3,67,R,ugm-3,22,R,ugm-3,3,R,ugm-3
07-01-1999,02:00,,,,13,R,ugm-3 (GRAV EQ),8,R,ugm-3,46,R,ugm-3,57,R,ugm-3,30,R,ugm-3,3,R,ugm-3
07-01-1999,03:00,,,,7,R,ugm-3 (GRAV EQ),8,R,ugm-3,38,R,ugm-3,50,R,ugm-3,42,R,ugm-3,5,R,ugm-3
07-01-1999,04:00,,,,10,R,ugm-3 (GRAV EQ),9,R,ugm-3,29,R,ugm-3,42,R,ugm-3,58,R,ugm-3,3,R,ugm-3
07-01-1999,05:00,,,,17,R,ugm-3 (GRAV EQ),8,R,ugm-3,46,R,ugm-3,57,R,ugm-3,26,R,ugm-3,5,R,ugm-3
07-01-1999,06:00,,,,14,R,ugm-3 (GRAV EQ),10,R,ugm-3,57,R,ugm-3,73,R,ugm-3,12,R,ugm-3,8,R,ugm-3
07-01-1999,07:00,,,,12,R,ugm-3 (GRAV EQ),14,R,ugm-3,67,R,ugm-3,88,R,ugm-3,6,R,ugm-3,5,R,ugm-3
07-01-1999,08:00,,,,13,R,ugm-3 (GRAV EQ),31,R,ugm-3,76,R,ugm-3,124,R,ugm-3,2,R,ugm-3,5,R,ugm-3
07-01-1999,09:00,,,,26,R,ugm-3 (GRAV EQ),79,R,ugm-3,84,R,ugm-3,204,R,ugm-3,0,R,ugm-3,13,R,ugm-3
07-01-1999,10:00,,,,30,R,ugm-3 (GRAV EQ),91,R,ugm-3,86,R,ugm-3,225,R,ugm-3,0,R,ugm-3,19,R,ugm-3
07-01-1999,11:00,,,,,,,,,,,,,,,,,,,,,
07-01-1999,12:00,,,,43,R,ugm-3 (GRAV EQ),30,R,ugm-3,71,R,ugm-3,117,R,ugm-3,4,R,ugm-3,13,R,ugm-3
07-01-1999,13:00,,,,25,R,ugm-3 (GRAV EQ),,,,,,,,,,,,,,,
07-01-1999,14:00,,,,5,R,ugm-3 (GRAV EQ),,,,,,,,,,,,,,,
07-01-1999,15:00,,,,13,R,ugm-3 (GRAV EQ),16,R,ugm-3,76,R,ugm-3,101,R,ugm-3,8,R,ugm-3,8,R,ugm-3
07-01-1999,16:00,,,,17,R,ugm-3 (GRAV EQ),18,R,ugm-3,88,R,ugm-3,115,R,ugm-3,8,R,ugm-3,8,R,ugm-3
07-01-1999,17:00,,,,10,R,ugm-3 (GRAV EQ),9,R,ugm-3,65,R,ugm-3,78,R,ugm-3,22,R,ugm-3,8,R,ugm-3
07-01-1999,18:00,,,,14,R,ugm-3 (GRAV EQ),8,R,ugm-3,55,R,ugm-3,67,R,ugm-3,28,R,ugm-3,11,R,ugm-3
07-01-1999,19:00,,,,13,R,ugm-3 (GRAV EQ),9,R,ugm-3,61,R,ugm-3,74,R,ugm-3,26,R,ugm-3,11,R,ugm-3
07-01-1999,20:00,,,,9,R,ugm-3 (GRAV EQ),3,R,ugm-3,31,R,ugm-3,34,R,ugm-3,58,R,ugm-3,5,R,ugm-3
07-01-1999,21:00,,,,14,R,ugm-3 (GRAV EQ),3,R,ugm-3,25,R,ugm-3,29,R,ugm-3,62,R,ugm-3,3,R,ugm-3
07-01-1999,22:00,,,,16,R,ugm-3 (GRAV EQ),3,R,ugm-3,31,R,ugm-3,34,R,ugm-3,54,R,ugm-3,3,R,ugm-3
07-01-1999,23:00,,,,17,R,ugm-3 (GRAV EQ),1,R,ugm-3,27,R,ugm-3,29,R,ugm-3,58,R,ugm-3,3,R,ugm-3
07-01-1999,24:00,,,,18,R,ugm-3 (GRAV EQ),5,R,ugm-3,32,R,ugm-3,40,R,ugm-3,46,R,ugm-3,3,R,ugm-3
08-01-1999,01:00,,,,16,R,ugm-3 (GRAV EQ),4,R,ugm-3,31,R,ugm-3,36,R,ugm-3,48,R,ugm-3,3,R,ugm-3
08-01-1999,02:00,,,,16,R,ugm-3 (GRAV EQ),3,R,ugm-3,31,R,ugm-3,34,R,ugm-3,52,R,ugm-3,3,R,ugm-3
08-01-1999,03:00,,,,22,R,ugm-3 (GRAV EQ),1,R,ugm-3,25,R,ugm-3,27,R,ugm-3,54,R,ugm-3,3,R,ugm-3
08-01-1999,04:00,,,,18,R,ugm-3 (GRAV EQ),3,R,ugm-3,19,R,ugm-3,23,R,ugm-3,60,R,ugm-3,3,R,ugm-3
08-01-1999,05:00,,,,22,R,ugm-3 (GRAV EQ),5,R,ugm-3,32,R,ugm-3,40,R,ugm-3,42,R,ugm-3,3,R,ugm-3
08-01-1999,06:00,,,,25,R,ugm-3 (GRAV EQ),3,R,ugm-3,42,R,ugm-3,46,R,ugm-3,32,R,ugm-3,3,R,ugm-3
08-01-1999,07:00,,,,22,R,ugm-3 (GRAV EQ),41,R,ugm-3,71,R,ugm-3,134,R,ugm-3,4,R,ugm-3,5,R,ugm-3
08-01-1999,08:00,,,,22,R,ugm-3 (GRAV EQ),50,R,ugm-3,76,R,ugm-3,153,R,ugm-3,4,R,ugm-3,5,R,ugm-3
08-01-1999,09:00,,,,22,R,ugm-3 (GRAV EQ),55,R,ugm-3,82,R,ugm-3,166,R,ugm-3,2,R,ugm-3,5,R,ugm-3
08-01-1999,10:00,,,,35,R,ugm-3 (GRAV EQ),179,R,ugm-3,94,R,ugm-3,367,R,ugm-3,2,R,ugm-3,11,R,ugm-3
08-01-1999,11:00,,,,33,R,ugm-3 (GRAV EQ),130,R,ugm-3,94,R,ugm-3,292,R,ugm-3,2,R,ugm-3,11,R,ugm-3
08-01-1999,12:00,,,,35,R,ugm-3 (GRAV EQ),120,R,ugm-3,94,R,ugm-3,277,R,ugm-3,4,R,ugm-3,13,R,ugm-3
08-01-1999,13:00,,,,33,R,ugm-3 (GRAV EQ),98,R,ugm-3,92,R,ugm-3,241,R,ugm-3,6,R,ugm-3,13,R,ugm-3
08-01-1999,14:00,,,,25,R,ugm-3 (GRAV EQ),74,R,ugm-3,78,R,ugm-3,191,R,ugm-3,6,R,ugm-3,11,R,ugm-3
08-01-1999,15:00,,,,25,R,ugm-3 (GRAV EQ),75,R,ugm-3,74,R,ugm-3,189,R,ugm-3,6,R,ugm-3,11,R,ugm-3
08-01-1999,16:00,,,,23,R,ugm-3 (GRAV EQ),79,R,ugm-3,73,R,ugm-3,193,R,ugm-3,4,R,ugm-3,11,R,ugm-3
08-01-1999,17:00,,,,21,R,ugm-3 (GRAV EQ),59,R,ugm-3,67,R,ugm-3,157,R,ugm-3,4,R,ugm-3,8,R,ugm-3
08-01-1999,18:00,,,,20,R,ugm-3 (GRAV EQ),79,R,ugm-3,78,R,ugm-3,199,R,ugm-3,4,R,ugm-3,11,R,ugm-3
08-01-1999,19:00,,,,25,R,ugm-3 (GRAV EQ),95,R,ugm-3,82,R,ugm-3,227,R,ugm-3,2,R,ugm-3,11,R,ugm-3
08-01-1999,20:00,,,,26,R,ugm-3 (GRAV EQ),74,R,ugm-3,82,R,ugm-3,195,R,ugm-3,2,R,ugm-3,11,R,ugm-3
08-01-1999,21:00,,,,22,R,ugm-3 (GRAV EQ),51,R,ugm-3,76,R,ugm-3,155,R,ugm-3,2,R,ugm-3,11,R,ugm-3
08-01-1999,22:00,,,,20,R,ugm-3 (GRAV EQ),30,R,ugm-3,67,R,ugm-3,113,R,ugm-3,10,R,ugm-3,11,R,ugm-3
08-01-1999,23:00,,,,18,R,ugm-3 (GRAV EQ),25,R,ugm-3,65,R,ugm-3,103,R,ugm-3,8,R,ugm-3,11,R,ugm-3
08-01-1999,24:00,,,,20,R,ugm-3 (GRAV EQ),40,R,ugm-3,69,R,ugm-3,130,R,ugm-3,6,R,ugm-3,11,R,ugm-3
09-01-1999,01:00,,,,18,R,ugm-3 (GRAV EQ),18,R,ugm-3,63,R,ugm-3,90,R,ugm-3,14,R,ugm-3,11,R,ugm-3
09-01-1999,02:00,,,,21,R,ugm-3 (GRAV EQ),33,R,ugm-3,71,R,ugm-3,120,R,ugm-3,4,R,ugm-3,11,R,ugm-3
09-01-1999,03:00,,,,16,R,ugm-3 (GRAV EQ),6,R,ugm-3,55,R,ugm-3,65,R,ugm-3,18,R,ugm-3,8,R,ugm-3
09-01-1999,04:00,,,,12,R,ugm-3 (GRAV EQ),5,R,ugm-3,53,R,ugm-3,61,R,ugm-3,22,R,ugm-3,8,R,ugm-3
09-01-1999,05:00,,,,14,R,ugm-3 (GRAV EQ),15,R,ugm-3,65,R,ugm-3,88,R,ugm-3,4,R,ugm-3,11,R,ugm-3
09-01-1999,06:00,,,,13,R,ugm-3 (GRAV EQ),20,R,ugm-3,65,R,ugm-3,96,R,ugm-3,6,R,ugm-3,8,R,ugm-3
09-01-1999,07:00,,,,17,R,ugm-3 (GRAV EQ),95,R,ugm-3,74,R,ugm-3,220,R,ugm-3,2,R,ugm-3,11,R,ugm-3
09-01-1999,08:00,,,,21,R,ugm-3 (GRAV EQ),90,R,ugm-3,82,R,ugm-3,220,R,ugm-3,2,R,ugm-3,13,R,ugm-3
09-01-1999,09:00,,,,26,R,ugm-3 (GRAV EQ),180,R,ugm-3,88,R,ugm-3,363,R,ugm-3,2,R,ugm-3,19,R,ugm-3
09-01-1999,10:00,,,,38,R,ugm-3 (GRAV EQ),251,R,ugm-3,103,R,ugm-3,487,R,ugm-3,2,R,ugm-3,21,R,ugm-3
09-01-1999,11:00,,,,46,R,ugm-3 (GRAV EQ),223,R,ugm-3,101,R,ugm-3,441,R,ugm-3,2,R,ugm-3,21,R,ugm-3
09-01-1999,12:00,,,,29,R,ugm-3 (GRAV EQ),131,R,ugm-3,90,R,ugm-3,290,R,ugm-3,2,R,ugm-3,16,R,ugm-3
09-01-1999,13:00,,,,21,R,ugm-3 (GRAV EQ),61,R,ugm-3,76,R,ugm-3,170,R,ugm-3,6,R,ugm-3,11,R,ugm-3
09-01-1999,14:00,,,,13,R,ugm-3 (GRAV EQ),45,R,ugm-3,65,R,ugm-3,134,R,ugm-3,20,R,ugm-3,11,R,ugm-3
09-01-1999,15:00,,,,14,R,ugm-3 (GRAV EQ),35,R,ugm-3,65,R,ugm-3,118,R,ugm-3,24,R,ugm-3,8,R,ugm-3
09-01-1999,16:00,,,,14,R,ugm-3 (GRAV EQ),30,R,ugm-3,65,R,ugm-3,111,R,ugm-3,24,R,ugm-3,11,R,ugm-3
09-01-1999,17:00,,,,23,R,ugm-3 (GRAV EQ),84,R,ugm-3,84,R,ugm-3,212,R,ugm-3,4,R,ugm-3,16,R,ugm-3
09-01-1999,18:00,,,,29,R,ugm-3 (GRAV EQ),86,R,ugm-3,88,R,ugm-3,220,R,ugm-3,2,R,ugm-3,16,R,ugm-3
09-01-1999,19:00,,,,33,R,ugm-3 (GRAV EQ),106,R,ugm-3,88,R,ugm-3,250,R,ugm-3,2,R,ugm-3,24,R,ugm-3
09-01-1999,20:00,,,,35,R,ugm-3 (GRAV EQ),153,R,ugm-3,88,R,ugm-3,321,R,ugm-3,2,R,ugm-3,24,R,ugm-3
09-01-1999,21:00,,,,40,R,ugm-3 (GRAV EQ),225,R,ugm-3,96,R,ugm-3,439,R,ugm-3,2,R,ugm-3,27,R,ugm-3
09-01-1999,22:00,,,,34,R,ugm-3 (GRAV EQ),150,R,ugm-3,90,R,ugm-3,319,R,ugm-3,2,R,ugm-3,24,R,ugm-3
09-01-1999,23:00,,,,51,R,ugm-3 (GRAV EQ),320,R,ugm-3,97,R,ugm-3,586,R,ugm-3,2,R,ugm-3,29,R,ugm-3
09-01-1999,24:00,,,,46,R,ugm-3 (GRAV EQ),244,R,ugm-3,96,R,ugm-3,468,R,ugm-3,2,R,ugm-3,27,R,ugm-3
10-01-1999,01:00,,,,42,R,ugm-3 (GRAV EQ),274,R,ugm-3,97,R,ugm-3,516,R,ugm-3,2,R,ugm-3,24,R,ugm-3
10-01-1999,02:00,,,,35,R,ugm-3 (GRAV EQ),215,R,ugm-3,90,R,ugm-3,418,R,ugm-3,2,R,ugm-3,21,R,ugm-3
10-01-1999,03:00,,,,,,,,,,,,,,,,,,,,,
10-01-1999,04:00,,,,,,,,,,,,,,,,,,,,,
10-01-1999,05:00,,,,,,,,,,,,,,,,,,,,,
10-01-1999,06:00,,,,,,,,,,,,,,,,,,,,,
10-01-1999,07:00,,,,,,,,,,,,,,,,,,,,,
10-01-1999,08:00,,,,,,,,,,,,,,,,,,,,,
10-01-1999,09:00,,,,,,,,,,,,,,,,,,,,,
10-01-1999,10:00,,,,,,,,,,,,,,,,,,,,,
10-01-1999,11:00,,,,,,,,,,,,,,,,,,,,,
10-01-1999,12:00,,,,,,,,,,,,,,,,,,,,,
10-01-1999,13:00,,,,,,,,,,,,,,,,,,,,,
10-01-1999,14:00,,,,,,,,,,,,,,,,,,,,,
10-01-1999,15:00,,,,,,,,,,,,,,,,,,,,,
10-01-1999,16:00,,,,,,,,,,,,,,,,,,,,,
10-01-1999,17:00,,,,,,,,,,,,,,,,,,,,,
10-01-1999,18:00,,,,42,R,ugm-3 (GRAV EQ),148,R,ugm-3,105,R,ugm-3,330,R,ugm-3,2,R,ugm-3,27,R,ugm-3
10-01-1999,19:00,,,,36,R,ugm-3 (GRAV EQ),126,R,ugm-3,99,R,ugm-3,292,R,ugm-3,0,R,ugm-3,24,R,ugm-3
10-01-1999,20:00,,,,46,R,ugm-3 (GRAV EQ),179,R,ugm-3,103,R,ugm-3,376,R,ugm-3,2,R,ugm-3,35,R,ugm-3
10-01-1999,21:00,,,,62,R,ugm-3 (GRAV EQ),336,R,ugm-3,115,R,ugm-3,628,R,ugm-3,2,R,ugm-3,40,R,ugm-3
10-01-1999,22:00,,,,64,R,ugm-3 (GRAV EQ),355,R,ugm-3,117,R,ugm-3,659,R,ugm-3,2,R,ugm-3,37,R,ugm-3
10-01-1999,23:00,,,,65,R,ugm-3 (GRAV EQ),423,R,ugm-3,122,R,ugm-3,768,R,ugm-3,2,R,ugm-3,35,R,ugm-3
10-01-1999,24:00,,,,68,R,ugm-3 (GRAV EQ),463,R,ugm-3,120,R,ugm-3,827,R,ugm-3,2,R,ugm-3,37,R,ugm-3
11-01-1999,01:00,,,,52,R,ugm-3 (GRAV EQ),345,R,ugm-3,111,R,ugm-3,638,R,ugm-3,4,R,ugm-3,32,R,ugm-3
11-01-1999,02:00,,,,46,R,ugm-3 (GRAV EQ),271,R,ugm-3,92,R,ugm-3,506,R,ugm-3,4,R,ugm-3,27,R,ugm-3
11-01-1999,03:00,,,,43,R,ugm-3 (GRAV EQ),216,R,ugm-3,84,R,ugm-3,414,R,ugm-3,4,R,ugm-3,24,R,ugm-3
11-01-1999,04:00,,,,44,R,ugm-3 (GRAV EQ),286,R,ugm-3,88,R,ugm-3,525,R,ugm-3,4,R,ugm-3,24,R,ugm-3
11-01-1999,05:00,,,,46,R,ugm-3 (GRAV EQ),326,R,ugm-3,94,R,ugm-3,592,R,ugm-3,4,R,ugm-3,27,R,ugm-3
11-01-1999,06:00,,,,47,R,ugm-3 (GRAV EQ),328,R,ugm-3,96,R,ugm-3,596,R,ugm-3,4,R,ugm-3,27,R,ugm-3
11-01-1999,07:00,,,,61,R,ugm-3 (GRAV EQ),383,R,ugm-3,107,R,ugm-3,691,R,ugm-3,6,R,ugm-3,32,R,ugm-3
11-01-1999,08:00,,,,57,R,ugm-3 (GRAV EQ),379,R,ugm-3,105,R,ugm-3,684,R,ugm-3,6,R,ugm-3,32,R,ugm-3
11-01-1999,09:00,,,,64,R,ugm-3 (GRAV EQ),460,R,ugm-3,134,R,ugm-3,837,R,ugm-3,6,R,ugm-3,40,R,ugm-3
11-01-1999,10:00,,,,86,R,ugm-3 (GRAV EQ),618,R,ugm-3,151,R,ugm-3,1094,R,ugm-3,6,R,ugm-3,45,R,ugm-3
11-01-1999,11:00,,,,98,R,ugm-3 (GRAV EQ),541,R,ugm-3,159,R,ugm-3,986,R,ugm-3,6,R,ugm-3,48,R,ugm-3
11-01-1999,12:00,,,,55,R,ugm-3 (GRAV EQ),313,R,ugm-3,128,R,ugm-3,605,R,ugm-3,4,R,ugm-3,35,R,ugm-3
11-01-1999,13:00,,,,44,R,ugm-3 (GRAV EQ),191,R,ugm-3,113,R,ugm-3,405,R,ugm-3,6,R,ugm-3,27,R,ugm-3
11-01-1999,14:00,,,,39,R,ugm-3 (GRAV EQ),116,R,ugm-3,99,R,ugm-3,277,R,ugm-3,6,R,ugm-3,21,R,ugm-3
11-01-1999,15:00,,,,23,R,ugm-3 (GRAV EQ),93,R,ugm-3,99,R,ugm-3,241,R,ugm-3,6,R,ugm-3,16,R,ugm-3
11-01-1999,16:00,,,,29,R,ugm-3 (GRAV EQ),83,R,ugm-3,99,R,ugm-3,225,R,ugm-3,4,R,ugm-3,16,R,ugm-3
11-01-1999,17:00,,,,43,R,ugm-3 (GRAV EQ),159,R,ugm-3,111,R,ugm-3,353,R,ugm-3,6,R,ugm-3,21,R,ugm-3
11-01-1999,18:00,,,,57,R,ugm-3 (GRAV EQ),256,R,ugm-3,122,R,ugm-3,514,R,ugm-3,6,R,ugm-3,29,R,ugm-3
11-01-1999,19:00,,,,52,R,ugm-3 (GRAV EQ),255,R,ugm-3,118,R,ugm-3,508,R,ugm-3,6,R,ugm-3,29,R,ugm-3
11-01-1999,20:00,,,,66,R,ugm-3 (GRAV EQ),270,R,ugm-3,122,R,ugm-3,535,R,ugm-3,6,R,ugm-3,27,R,ugm-3
11-01-1999,21:00,,,,94,R,ugm-3 (GRAV EQ),343,R,ugm-3,145,R,ugm-3,669,R,ugm-3,6,R,ugm-3,32,R,ugm-3
11-01-1999,22:00,,,,86,R,ugm-3 (GRAV EQ),245,R,ugm-3,124,R,ugm-3,499,R,ugm-3,6,R,ugm-3,27,R,ugm-3
11-01-1999,23:00,,,,72,R,ugm-3 (GRAV EQ),150,R,ugm-3,105,R,ugm-3,334,R,ugm-3,4,R,ugm-3,24,R,ugm-3